User: anonymous   Login
Location: Unspecified
(0.0000°N, 0.0000°E)
Time: 07:15:33
(UTC+00:00)
Language:

A-11 Canister half - Orbit

View from above orbital plane
View from above orbital plane
View from above satellite
View from above satellite

Ground track
Ground track

The orbit data is extracted from the following two-line orbital elements,

1    51U 60009C   17149.54960999 -.00000111 +00000-0 -24141-3 0  9994
2    51 047.2108 196.6318 0103748 088.3950 272.8719 12.18263609528177
Epoch (UTC): 29 May 2017 13:11:26
Eccentricity: 0.0103748
inclination: 47.2108°
perigee height: 1517 km
apogee height: 1683 km
right ascension of ascending node: 196.6318°
argument of perigee: 88.3950°
revolutions per day: 12.18263609
mean anomaly at epoch: 272.8719°
orbit number at epoch: 52817

The dashed part of the orbit path shows where the satellite is in the earth's shadow,  

DLR